IUS DEB, 43367

Orbit data source: Space-Track

IUS DEB, 43367 is space debris originally from a launch on Fri, 23 Jul 1999 UTC launched from the Air Force Eastern Test Range (AFETR). Debris objects in space refer to the collection of defunct objects orbiting the Earth. Examples of debris include non-operational satellites, rocket bodies, and fragments generated from explosions, collisions, or faulty payload assembly.

Loading next visibility...
Identifier
43367, 1999-040Q
Orbit
Active
Last TLE update
1 day ago
Origin
Manufacturer
Boeing/Kent
Mission
Spacecraft
Bus & Motor
Unknown
Mass
Unknown
Launch date (UTC)
1999-07-23 (26 years ago)
Launch vehicle
Unknown
Launch site
Air Force Eastern Test Range (AFETR)
Object type
Payload
Rocket body
Debris
Shape & HBR
Unknown
Radar Cross Section
Small (<0.1 m²)

Expand to show TLE details & history

TLE from 1 day ago
0 IUS DEB
1 43367U 99040Q   25181.39514450  .00000292  00000-0  18099-2 0  9995
2 43367  28.0993  93.0161 3770751 192.2304 155.2561  7.01031678 96527
Epoch: 2025-06-30T09:29Z
TLE epoch observation values (Epoch: 2025-06-30T09:29:00.484Z)
Latitude
-0.00003°
Longitude
32.05847°
Altitude
9,286.379 km
Speed
4.042 km/s
True Right ascension
06h 12m 03s
True Declination
0° 00' 00"
Sunlit
Object was in daylight at epoch
Visualization orbit readout
Latitude
13.34861°
Longitude
-176.22317°
Altitude
1,425.067 km
Speed
8.223 km/s
Apparent Right ascension
16h 51m 45s
Apparent Declination
-10° 30' 08"
Sunlit
Object is in full shadow
Visualization observer readout
Local Sidereal Time
05:42:53
Azimuth
24.588° NE
Elevation
-58.474°
Doppler factor
1
Orbital elements
Apogee altitude
9,506.92 km
Perigee altitude
807.526 km
Semi-major axis
11,535.36 km
Eccentricity
0.37708
Inclination
28.0993°
RAAN
93.0161°
Arg. of periapsis
192.2304°
True anomaly
Unknown
Mean anomaly
155.2561°
Eccentric anomaly
Unknown
Mean motion
1.75185 °/min
Orbital period
205.5 mins
BSTAR
0.0018099
Loading maneuver chart data...
Loading SW <> Apogee altitude chart data...
Loading historical data...
Loading historical data...
Loading historical data...
Loading historical data...
Loading historical data...
Loading historical data...
Loading historical data...

IUS DEB Visibility forecast

Observer location: undefined°, undefined°

Span
Click to sort rows by Start time (UTC) header in descending order
Start Az.
Max El. time (UTC)
Max El. Az.
Max El.
End time (UTC)
End Az.
102 mins2025-07-01 19:23:11.988Z215.708° SW2025-07-01 20:30:11.988Z153.737° SSE38.511°2025-07-01 21:05:11.988Z89.758° E
72 mins2025-07-01 23:34:11.988Z255.736° W2025-07-02 00:30:11.988Z186.135° SSW41.656°2025-07-02 00:46:11.988Z111.355° ESE
22 mins2025-07-02 03:56:11.988Z270.896° WNW2025-07-02 04:11:11.988Z227.585° WSW23.564°2025-07-02 04:18:11.988Z177.387° S
72 mins2025-07-02 15:47:11.988Z158.208° S2025-07-02 16:23:11.988Z124.004° SE17.896°2025-07-02 16:59:11.988Z93.881° ESE
|